Tracking 25734 objects as of 28-May-2022
HD Live streaming from Space Station
objects crossing your sky now

BREEZE-M DEB (TANK)

Track BREEZE-M DEB (TANK) now!
10-day predictions


NORAD ID: 38344
Int'l Code: 2012-026C
Perigee: 322.4 km
Apogee: 22,921.1 km
Inclination: 49.3 °
Period: 400.3 minutes
Semi major axis: 17992 km
RCS: 6.905 m2 (large)
Launch date: May 17, 2012
Source: Commonwealth of Independent States (former USSR) (CIS)
Launch site: TYURATAM MISSILE AND SPACE COMPLEX (TTMTR)

Note: This is SATELLITE DEBRIS
aabbcc
Your satellite tracking list
Your tracking list is empty




NASA's NSSDC Master Catalog

Two Line Element Set (TLE):
1 38344U 12026C   22147.55096445  .00001189  00000-0  51054-3 0  9994
2 38344  49.3039 307.4455 6279965 355.4547   0.7207  3.59713924127220
Source of the keplerian elements: AFSPC